Overview Statistics Trail Chart Weather Telemetry Raw packets
 

This is the latest recevied weather packets stored in our database for station/object K3RUP-1. If no packets are shown the sender has not sent any weather packets the latest 10 day(s).

<< 11 12 13 14 15 16 17 >>
Time Temp. Humidity Pressure Rain* Wind** Luminosity Snow
1788616565 25.56° C 75% 1011.3 hPa 0 mm - 127 W/m² -
1788616260 25° C 76% 1011.4 hPa 0 mm - 160 W/m² -
1788615955 25° C 75% 1011.5 hPa 0 mm - 116 W/m² -
1788615669 24.44° C 75% 1011.5 hPa 0 mm - 111 W/m² -
1788615349 24.44° C 77% 1011.3 hPa 0 mm - 108 W/m² -
1788615049 24.44° C 77% 1011.6 hPa 0 mm - 87 W/m² -
1788614749 24.44° C 77% 1011.4 hPa 0 mm - 81 W/m² -
1788614443 24.44° C 78% 1011.3 hPa 0 mm - 91 W/m² -
1788614139 24.44° C 83% 1011.3 hPa 0 mm - 91 W/m² -
1788613834 25° C 84% 1011.5 hPa 0 mm - 104 W/m² -
1788613533 25° C 83% 1011.3 hPa 0 mm - 64 W/m² -
1788613229 25° C 82% 1011.1 hPa 0 mm - 78 W/m² -
1788612928 25° C 83% 1011.2 hPa 0 mm - 68 W/m² -
1788612623 24.44° C 86% 1011.1 hPa 0 mm - 140 W/m² -
1788612320 24.44° C 89% 1010.7 hPa 0 mm - 100 W/m² -
1788612016 24.44° C 88% 1011.1 hPa 0 mm - 66 W/m² -
1788611711 24.44° C 89% 1011.2 hPa 0 mm - 80 W/m² -
1788611408 24.44° C 90% 1011.2 hPa 0 mm - 75 W/m² -
1788611101 24.44° C 91% 1011 hPa 0 mm - 72 W/m² -
1788610823 23.89° C 91% 1011.1 hPa 0 mm - 57 W/m² -
1788610492 23.89° C 93% 1010.9 hPa 0 mm - 59 W/m² -
1788610190 23.33° C 94% 1010.7 hPa 0 mm - 58 W/m² -
1788609879 23.33° C 96% 1010.7 hPa 0 mm - 52 W/m² -
1788609574 22.78° C 98% 1010.8 hPa 0 mm - 42 W/m² -
1788609274 22.78° C 98% 1010.6 hPa 0 mm - 34 W/m² -

* Rain latest hour (hover to see other rain measurements)
** Current wind speed in m/s (hover to see current wind gust speed)